Regional Weather Roundup
Issued by NWS

Home | Current Version | Previous Version | Graphics & Text | Print | Product List | Glossary On
Versions: 1 2 3 4 5 6 7 8 9 10 11 12 13 14 15 16 17 18 19 20 21 22 23 24 25 26 27 28 29 30 31 32 33 34 35 36 37 38 39 40 41 42 43 44 45 46 47 48 49 50
000
ASUS45 KBOU 211807
RWRCO

WEATHER ROUNDUP FOR COLORADO
NATIONAL WEATHER SERVICE DENVER/BOULDER CO
1200 PM MDT THU AUG 21 2014

NOTE: "FAIR" INDICATES FEW OR NO CLOUDS BELOW 12000 FEET WITH NO
SIGNIFICANT WEATHER AND/OR OBSTRUCTIONS TO VISIBILITY.

COZ001>005-013-030-031-211900-
...NORTHWEST COLORADO...

CITY           SKY/WX    TMP DP  RH WIND       PRES   REMARKS
CRAIG            N/A     72  47  40 W12G17    30.21F
HAYDEN         MOSUNNY   66  48  52 CALM      30.24S
MEEKER         PTSUNNY   71  47  42 W3        30.22F
MOUNT WERNER   NOT AVBL
STEAMBOAT SPGS MOSUNNY   66  47  51 W5        30.26S
WALDEN         PTSUNNY   63  41  45 SW13      30.31S
$$

COZ006>008-011-211900-
...WEST CENTRAL VALLEYS...

CITY           SKY/WX    TMP DP  RH WIND       PRES   REMARKS
GRAND JUNCTION CLOUDY    73  47  39 CALM      30.15S
MONTROSE       PTSUNNY   76  45  33 N8        30.21F
EAGLE          MOSUNNY   70  48  46 CALM      30.25F
RIFLE          PTSUNNY   73  43  33 W9        30.18F
DELTA          PTSUNNY   77  43  28 CALM      30.17F
NUCLA          PTSUNNY   73  45  35 NW6       30.25S
$$

COZ017>023-064>068-211900-
...SOUTHWEST COLORADO...

CITY           SKY/WX    TMP DP  RH WIND       PRES   REMARKS
DURANGO        MOSUNNY   76  35  22 N5        30.24F
CORTEZ         SUNNY     79  38  22 VRB5      30.21S
PAGOSA SPRINGS MOSUNNY   71  33  24 CALM      30.32S
TELLURIDE      MOSUNNY   64  34  32 NW6       30.40S
WOLF CREEK PAS NOT AVBL
$$

COZ009-010-012-014-032>034-037-058>063-211900-
...CENTRAL COLORADO...

CITY           SKY/WX    TMP DP  RH WIND       PRES   REMARKS
ASPEN          MOSUNNY   70  40  33 NE8G17    30.30S
BUENA VISTA    NOT AVBL
COPPER MTN     PTSUNNY   55  32  41 W13G24    30.58S
BERTHOUD PASS  PTSUNNY   45  43  93 N7        30.61R
COTTONWOOD PAS SUNNY     68  28  22 NW3       30.43S
GUNNISON       MOSUNNY   64  39  39 N3        30.34F
KREMMLING      MOSUNNY   70  41  35 SW12      30.29F
LEADVILLE      MOSUNNY   62  32  32 N14G22    30.41F
MONARCH PASS   SUNNY     50  36  57 W17G25    30.68R
SALIDA         SUNNY     74  38  27 NE10      30.33F
SUNLIGHT       PTSUNNY   55  46  71 W5        30.52S
WILKERSON PASS NOT AVBL
$$

COZ069>075-211900-
...SAN LUIS VALLEY/SANGRE DE CRISTO MOUNTAINS...

CITY           SKY/WX    TMP DP  RH WIND       PRES   REMARKS
ALAMOSA        SUNNY     71  37  28 VRB5      30.30S
LA VETA PASS   NOT AVBL
SAGUACHE       SUNNY     70  36  28 NW8       30.32F
$$

COZ035-036-038>040-211900-
...NORTHERN COLORADO FRONT RANGE...

CITY           SKY/WX    TMP DP  RH WIND       PRES   REMARKS
DENVER INTL AP MOSUNNY   78  48  34 VRB5      30.11F
DMNS CITY PARK   N/A     81  44  26 NE5       30.10F
AURORA         MOSUNNY   78  48  34 VRB1      30.14S
FRONT RANGE AP PTSUNNY   81  46  30 CALM      30.14
ERIE MUNI ARPT MOSUNNY   83  40  22 S5        30.09S
BOULDER MUN AP MOSUNNY   81  46  30 E6        30.09F
CENTENNIAL     PTSUNNY   76  44  32 NE5       30.14F
BROOMFIELD     PTSUNNY   81  46  30 VRB5      30.13S
FORT COLLINS   MOSUNNY   81  52  36 SE8       30.08F
LONGMONT       MOSUNNY   83  48  29 E7        30.10S
$$

COZ041-046-047-076>085-087-088-211900-
...PIKES PEAK/PALMER DIVIDE AND SOUTHERN FOOTHILLS...

CITY           SKY/WX    TMP DP  RH WIND       PRES   REMARKS
COLO. SPRINGS  MOSUNNY   79  45  29 SE10      30.18F
A. F. ACADEMY  MOSUNNY   77  46  32 S8        30.18F
ELLICOTT       SUNNY     78  49  35 SE9       30.16F
FALCON         SUNNY     75  46  35 S8        30.23F
FORT CARSON    SUNNY     79  48  34 SE9       30.15F
LIMON          MOSUNNY   81  45  28 NW6       30.12S
MONUMENT HILL  MOSUNNY   70  43  37 N5        30.22F
TRINIDAD       SUNNY     81  48  31 NW6       30.14F
$$

COZ042>045-048>051-090-091-211900-
...NORTHEAST COLORADO...

CITY           SKY/WX    TMP DP  RH WIND       PRES   REMARKS
GREELEY ARPT   SUNNY     82  48  30 SE3       30.09R
AKRON          SUNNY     82  46  28 NW12      30.07S
BURLINGTON     SUNNY     86  45  23 N16       30.03F
WRAY             N/A     90  47  22 NW13      30.00S
STERLING       SUNNY     86  52  30 NW12      30.01S
HOLYOKE        NOT AVBL
FORT MORGAN    MOSUNNY   85  44  23 NW12      30.07S
$$

COZ086-089-092>099-211900-
...SOUTHEAST COLORADO...

CITY           SKY/WX    TMP DP  RH WIND       PRES   REMARKS
PUEBLO         SUNNY     86  49  27 CALM      30.06F
LA JUNTA       NOT AVBL
LAMAR          NOT AVBL
SPRINGFIELD    NOT AVBL
$$


USA.gov is the U.S. government's official web portal to all federal, state and local government web resources and services.